[[{"header":{"parameterUnit":"m.s-1","parameterCategory":1,"la1":30.2992,"la2":30.254,"lo1":-89.0895,"lo2":-89.0443,"dy":0.0025,"dx":0.0025,"nx":19,"ny":19,"refTime":"2026-04-11T03:00:00:Z","depth":0,"parameterNumber":2,"parameterNumberName":"U-component_of_WINDS"},"data":[0,0,0,-1.2665,-1.2666,-1.2707,-1.2707,-1.2765,-1.2766,0,0,0,0,0,0,0,0,0,0,0,-1.2657,-1.2658,-1.2665,-1.2666,-1.2707,-1.2707,-1.2765,-1.2766,0,0,0,0,0,0,0,0,0,0,0,-1.2657,-1.2657,-1.2658,-1.2666,-1.2706,-1.2707,-1.2765,-1.2732,0,0,0,0,0,0,0,0,0,0,-1.2692,-1.2688,-1.2657,-1.2658,-1.2667,-1.2706,-1.2707,-1.2731,-1.2734,-1.275,0,-1.2765,0,-1.2766,-1.277,-1.2771,0,0,0,-1.2663,-1.2685,-1.2692,-1.2658,-1.2667,-1.2706,-1.2688,-1.2733,-1.2737,-1.2755,-1.2765,-1.2767,-1.2767,-1.2771,-1.2771,-1.2872,-1.2873,0,0,-1.2661,-1.2666,-1.2689,-1.2695,-1.2689,-1.2686,-1.2689,-1.2735,-1.2747,-1.2766,-1.2769,-1.2768,-1.2771,-1.2772,-1.2871,-1.2872,0,0,0,-1.2657,-1.2665,-1.2671,-1.2693,-1.27,-1.2688,-1.269,-1.2745,-1.2746,-1.2769,-1.2769,-1.2772,-1.2772,-1.2871,-1.2872,-1.2906,0,0,0,-1.2655,-1.2662,-1.267,-1.2674,-1.2699,-1.2722,-1.2699,-1.2743,-1.2748,-1.2769,-1.2772,-1.2773,-1.287,-1.2871,-1.2904,-1.2922,0,0,0,-1.2653,-1.2662,-1.2669,-1.2674,-1.2691,-1.2722,-1.2726,-1.2744,-1.2748,-1.2771,-1.2773,-1.287,-1.2871,-1.2902,-1.2918,-1.295,0,0,0,-1.2652,-1.2698,-1.267,-1.2721,-1.2691,-1.2743,-1.2725,-1.2764,-1.2787,-1.2772,-1.287,-1.2872,-1.2901,-1.2916,-1.2948,-1.2977,-1.299,0,0,-1.2713,-1.2706,-1.2736,-1.2712,-1.277,-1.2737,-1.28,-1.2817,-1.2814,-1.2853,-1.2856,-1.2905,-1.2918,-1.2949,-1.3062,-1.3072,0,0,0,-1.2757,-1.2779,-1.2793,-1.2816,-1.2831,-1.2845,-1.2852,-1.2858,-1.2891,-1.2835,-1.2925,-1.2933,-1.2951,-1.2965,-1.2974,-1.2989,-1.2878,-1.2878,-1.2878,-1.2849,-1.2845,-1.2895,-1.2896,-1.2919,-1.2927,-1.2945,-1.2956,-1.2943,-1.2965,-1.2976,-1.3045,-1.3061,-1.3068,-1.3084,-1.2992,-1.2992,-1.2992,-1.2992,-1.2938,-1.2968,-1.2953,-1.2996,-1.2992,-1.3029,-1.304,-1.303,-1.3064,-1.3035,-1.3051,-1.302,-1.3079,-1.3093,-1.2995,-1.2994,-1.2994,-1.2994,-1.2994,-1.2996,-1.301,-1.3019,-1.3053,-1.3081,-1.3081,-1.3115,-1.311,-1.3105,-1.3122,-1.3133,-1.3133,-1.3131,-1.3128,-1.3128,-1.3128,-1.3128,-1.3129,-1.3129,-1.3054,-1.3062,-1.3091,-1.3113,-1.3129,-1.3148,-1.3159,-1.3174,-1.319,-1.3184,-1.3184,-1.317,-1.3086,-1.3065,-1.3132,-1.3132,-1.3131,-1.3131,-1.3131,-1.3143,-1.3123,-1.3168,-1.3184,-1.321,-1.3239,-1.3233,-1.3265,-1.3277,-1.3295,-1.3279,-1.3218,-1.321,-1.3203,-1.3185,-1.3279,-1.3279,-1.3279,-1.3279,-1.3192,-1.3189,-1.3235,-1.3261,-1.3286,-1.3286,-1.3339,-1.3349,-1.3356,-1.3363,-1.3349,-1.3326,-1.3319,-1.3315,-1.3305,-1.3289,-1.3408,-1.3408,-1.3408,-1.3248,-1.3247,-1.3291,-1.3299,-1.332,-1.3339,-1.3388,-1.3419,-1.3423,-1.3413,-1.3369,-1.3364,-1.3326,-1.3314,-1.33,-1.3286,-1.3255,0,0]},{"header":{"parameterUnit":"m.s-1","parameterCategory":1,"la1":30.2992,"la2":30.254,"lo1":-89.0895,"lo2":-89.0443,"dy":0.0025,"dx":0.0025,"nx":19,"ny":19,"refTime":"2026-04-11T03:00:00:Z","depth":0,"parameterNumber":3,"parameterNumberName":"V-component_of_WINDS"},"data":[0,0,0,0.6692,0.6691,0.6599,0.6599,0.6491,0.649,0,0,0,0,0,0,0,0,0,0,0,0.6728,0.6727,0.6693,0.6691,0.6599,0.6599,0.6491,0.649,0,0,0,0,0,0,0,0,0,0,0,0.6728,0.6727,0.6727,0.669,0.66,0.6599,0.6491,0.6556,0,0,0,0,0,0,0,0,0,0,0.6643,0.6684,0.6728,0.6727,0.669,0.66,0.6599,0.6559,0.6552,0.6537,0,0.6529,0,0.6508,0.6484,0.6483,0,0,0,0.6683,0.669,0.6659,0.6727,0.6689,0.66,0.6638,0.6555,0.6547,0.6528,0.6527,0.6523,0.6506,0.6483,0.6483,0.6429,0.643,0,0,0.6688,0.6715,0.6664,0.6654,0.6673,0.6641,0.6636,0.655,0.6549,0.6527,0.652,0.6505,0.6482,0.6482,0.6429,0.643,0,0,0,0.6708,0.6719,0.6689,0.6659,0.6642,0.6639,0.6632,0.6553,0.6542,0.6519,0.6503,0.6482,0.6481,0.6429,0.6429,0.6463,0,0,0,0.671,0.673,0.6691,0.6707,0.6644,0.6597,0.6638,0.6548,0.6537,0.6504,0.6482,0.648,0.6429,0.6429,0.6461,0.6473,0,0,0,0.6731,0.6732,0.6722,0.6708,0.6671,0.6598,0.6581,0.6545,0.6528,0.6483,0.6479,0.6429,0.6429,0.646,0.6471,0.6468,0,0,0,0.6759,0.675,0.6723,0.6707,0.6672,0.6621,0.6581,0.6541,0.6506,0.6481,0.6429,0.6429,0.646,0.647,0.6467,0.647,0.6475,0,0,0.6762,0.6751,0.6739,0.6713,0.6675,0.6632,0.6596,0.6537,0.6506,0.6456,0.6454,0.6462,0.6471,0.6468,0.6488,0.6492,0,0,0,0.6749,0.6741,0.6725,0.6696,0.6654,0.6618,0.6563,0.6541,0.6498,0.6487,0.6459,0.6463,0.646,0.646,0.6463,0.6459,0.6431,0.6431,0.6431,0.679,0.6756,0.6734,0.6689,0.6661,0.6606,0.658,0.654,0.6509,0.6504,0.6488,0.6506,0.6507,0.6509,0.6506,0.6487,0.6487,0.6488,0.6488,0.6791,0.6775,0.674,0.6706,0.6669,0.6639,0.6586,0.6566,0.6531,0.6514,0.6509,0.6493,0.6515,0.6509,0.649,0.6489,0.6489,0.6489,0.6489,0.6814,0.68,0.6778,0.6734,0.6704,0.6657,0.6628,0.6593,0.656,0.6555,0.6536,0.6535,0.653,0.6549,0.6549,0.6549,0.6549,0.6549,0.6549,0.6847,0.682,0.6801,0.6759,0.6737,0.6703,0.665,0.6626,0.6591,0.6568,0.6567,0.6538,0.6524,0.6521,0.655,0.655,0.655,0.655,0.655,0.686,0.6853,0.6824,0.6803,0.6751,0.6723,0.6682,0.6637,0.6612,0.6598,0.6571,0.6567,0.6551,0.6548,0.6546,0.6579,0.6579,0.6579,0.6579,0.688,0.687,0.6834,0.6803,0.6768,0.6728,0.6695,0.6653,0.6608,0.6591,0.6581,0.6575,0.6574,0.6559,0.6556,0.6553,0.6587,0.6587,0.6587,0.6886,0.6873,0.6852,0.6813,0.677,0.6734,0.6701,0.6664,0.6611,0.6587,0.6576,0.6576,0.6565,0.6564,0.6538,0.6534,0.6528,0,0]}]]